Location: *
(47.6569°N, 7.4256°E)
Time: 13:20:58
(UTC+00:00)

Ariane Rocket - Pass Details

Date: 14 December 2019
Orbit: 761 x 769 km, 98.7° (Epoch: 27 January)

Event Time Altitude Azimuth Distance (km) Brightness Sun altitude
Exits shadow 17:40:50 21° 23° (NNE) 1,659 4.4 -19.5°
Drops below altitude 10° 17:42:59 10° 4° (N) 2,306 5.3 -19.9°
Sets 17:45:31 0° 354° (N) 3,236 6.2 -20.3°
